| time (UTC) | temp F | wind direction | speed MPH | gust MPH | rain 1hr in | rain 24hr in | rain mn in | humidity % | barometer mb |
| 20260906220027 | 82 | 75 | 13.0 | 17.0 | 0.00 | 0.00 | 0.00 | 47 | 1022.1 |
| 20260906214503 | 80 | 26 | 15.0 | 21.0 | 0.00 | 0.00 | 0.00 | 53 | 1022.3 |
| 20260906213005 | 77 | 53 | 18.0 | 23.0 | 0.00 | 0.00 | 0.00 | 53 | 1022.5 |
| 20260906211503 | 74 | 44 | 18.0 | 23.0 | 0.00 | 0.00 | 0.00 | 63 | 1022.7 |
| 20260906210003 | 74 | 94 | 11.0 | 17.0 | 0.00 | 0.00 | 0.00 | 58 | 1022.8 |
| 20260906204503 | 76 | 56 | 8.0 | 20.0 | 0.00 | 0.00 | 0.00 | 48 | 1022.9 |
| 20260906203003 | 76 | 27 | 16.0 | 24.0 | 0.00 | 0.00 | 0.00 | 47 | 1022.9 |
| 20260906201502 | 77 | 36 | 21.0 | 29.0 | 0.00 | 0.00 | 0.00 | 43 | 1023.1 |
| 20260906200003 | 81 | 81 | 21.0 | 27.0 | 0.00 | 0.00 | 0.00 | 42 | 1023.0 |
| 20260906194503 | 84 | 54 | 10.0 | 15.0 | 0.00 | 0.00 | 0.00 | 37 | 1022.7 |
| 20260906193003 | 85 | 152 | 0.0 | 5.0 | 0.00 | 0.00 | 0.00 | 39 | 1022.8 |
| 20260906191505 | 84 | 101 | 5.0 | 10.0 | 0.00 | 0.00 | 0.00 | 40 | 1023.1 |
| 20260906190002 | 84 | 79 | 4.0 | 8.0 | 0.00 | 0.00 | 0.00 | 38 | 1023.4 |
| 20260906184504 | 84 | 58 | 8.0 | 19.0 | 0.00 | 0.00 | 0.00 | 40 | 1023.4 |
| 20260906183009 | 87 | 22 | 0.0 | 1.0 | 0.00 | 0.00 | 0.00 | 36 | 1023.7 |
| 20260906181502 | 86 | 32 | 2.0 | 16.0 | 0.00 | 0.00 | 0.00 | 37 | 1024.0 |
| 20260906180007 | 86 | 110 | 0.0 | 10.0 | 0.00 | 0.00 | 0.00 | 38 | 1024.2 |
| 20260906174503 | 86 | 311 | 0.0 | 0.0 | 0.00 | 0.00 | 0.00 | 39 | 1024.4 |
| 20260906173003 | 85 | 342 | 0.0 | 0.0 | 0.00 | 0.00 | 0.00 | 40 | 1024.7 |
| 20260906171505 | 84 | 295 | 0.0 | 8.0 | 0.00 | 0.00 | 0.00 | 42 | 1024.8 |
| 20260906170011 | 83 | 44 | 0.0 | 8.0 | 0.00 | 0.00 | 0.00 | 42 | 1024.8 |
| 20260906164505 | 83 | 167 | 0.0 | 0.0 | 0.00 | 0.00 | 0.00 | 43 | 1024.7 |
| 20260906163003 | 83 | 66 | 0.0 | 0.0 | 0.00 | 0.00 | 0.00 | 46 | 1024.6 |
| 20260906161504 | 80 | 325 | 0.0 | 0.0 | 0.00 | 0.00 | 0.00 | 48 | 1024.7 |
| 20260906160006 | 81 | 117 | 0.0 | 0.0 | 0.00 | 0.00 | 0.00 | 48 | 1024.6 |
| 20260906154512 | 80 | 148 | 0.0 | 0.0 | 0.00 | 0.00 | 0.00 | 47 | 1024.6 |
| 20260906153006 | 79 | 108 | 0.0 | 0.0 | 0.00 | 0.00 | 0.00 | 49 | 1024.7 |
| 20260906151506 | 78 | 92 | 0.0 | 0.0 | 0.00 | 0.00 | 0.00 | 51 | 1024.6 |
| 20260906150009 | 77 | 329 | 0.0 | 0.0 | 0.00 | 0.00 | 0.00 | 52 | 1024.7 |
| 20260906144506 | 77 | 249 | 1.0 | 4.0 | 0.00 | 0.00 | 0.00 | 52 | 1024.5 |
| 20260906143009 | 76 | 174 | 0.0 | 0.0 | 0.00 | 0.00 | 0.00 | 53 | 1024.5 |
| 20260906141508 | 75 | 133 | 0.0 | 0.0 | 0.00 | 0.00 | 0.00 | 56 | 1024.4 |
| 20260906140011 | 73 | 128 | 0.0 | 3.0 | 0.00 | 0.00 | 0.00 | 60 | 1024.4 |
| 20260906134533 | 70 | 110 | 3.0 | 6.0 | 0.00 | 0.00 | 0.00 | 67 | 1024.5 |
| 20260906133010 | 68 | 110 | 4.0 | 6.0 | 0.00 | 0.00 | 0.00 | 69 | 1024.4 |
| 20260906131514 | 66 | 101 | 6.0 | 8.0 | 0.00 | 0.00 | 0.00 | 71 | 1024.4 |
| 20260906130014 | 67 | 70 | 8.0 | 9.0 | 0.00 | 0.00 | 0.00 | 67 | 1024.2 |
| 20260906124516 | 65 | 65 | 7.0 | 8.0 | 0.00 | 0.00 | 0.00 | 70 | 1024.0 |
| 20260906123027 | 66 | 57 | 7.0 | 9.0 | 0.00 | 0.00 | 0.00 | 69 | 1024.0 |
| 20260906121512 | 66 | 54 | 8.0 | 10.0 | 0.00 | 0.00 | 0.00 | 69 | 1023.9 |
| 20260906120009 | 66 | 48 | 7.0 | 11.0 | 0.00 | 0.00 | 0.00 | 68 | 1023.8 |
| 20260906114515 | 66 | 63 | 9.0 | 11.0 | 0.00 | 0.00 | 0.00 | 68 | 1023.6 |
| 20260906113019 | 67 | 54 | 7.0 | 10.0 | 0.00 | 0.00 | 0.00 | 68 | 1023.6 |
| 20260906111521 | 67 | 56 | 8.0 | 13.0 | 0.00 | 0.00 | 0.00 | 69 | 1023.6 |
| 20260906110018 | 65 | 57 | 7.0 | 11.0 | 0.00 | 0.00 | 0.00 | 71 | 1023.6 |
| 20260906104522 | 67 | 50 | 6.0 | 12.0 | 0.00 | 0.00 | 0.00 | 69 | 1023.4 |
| 20260906103015 | 66 | 50 | 9.0 | 14.0 | 0.00 | 0.00 | 0.00 | 68 | 1023.2 |
| 20260906101529 | 66 | 24 | 8.0 | 13.0 | 0.00 | 0.00 | 0.00 | 68 | 1023.2 |
| 20260906100024 | 65 | 51 | 7.0 | 12.0 | 0.00 | 0.00 | 0.00 | 71 | 1023.2 |
| 20260906094528 | 66 | 56 | 9.0 | 15.0 | 0.00 | 0.00 | 0.00 | 70 | 1023.2 |
| 20260906093024 | 66 | 44 | 13.0 | 15.0 | 0.00 | 0.00 | 0.00 | 70 | 1023.2 |
| 20260906091519 | 66 | 46 | 11.0 | 14.0 | 0.00 | 0.00 | 0.00 | 69 | 1023.1 |
| 20260906090021 | 65 | 81 | 9.0 | 12.0 | 0.00 | 0.00 | 0.00 | 71 | 1023.1 |
| 20260906084528 | 66 | 66 | 8.0 | 13.0 | 0.00 | 0.00 | 0.00 | 69 | 1023.2 |
| 20260906083028 | 66 | 65 | 8.0 | 11.0 | 0.00 | 0.00 | 0.00 | 69 | 1023.4 |
| 20260906081531 | 64 | 58 | 3.0 | 11.0 | 0.00 | 0.00 | 0.00 | 72 | 1023.4 |
| 20260906080028 | 63 | 96 | 4.0 | 6.0 | 0.00 | 0.00 | 0.00 | 74 | 1023.4 |
| 20260906074528 | 65 | 90 | 4.0 | 13.0 | 0.00 | 0.00 | 0.00 | 71 | 1023.4 |
| 20260906073023 | 66 | 44 | 11.0 | 14.0 | 0.00 | 0.00 | 0.00 | 68 | 1023.3 |
| 20260906071529 | 66 | 71 | 10.0 | 14.0 | 0.00 | 0.00 | 0.00 | 68 | 1023.6 |
| 20260906070031 | 66 | 70 | 9.0 | 12.0 | 0.00 | 0.00 | 0.00 | 68 | 1023.7 |
| 20260906064508 | 66 | 48 | 8.0 | 11.0 | 0.00 | 0.00 | 0.00 | 68 | 1023.8 |
| 20260906063006 | 66 | 30 | 10.0 | 13.0 | 0.00 | 0.00 | 0.00 | 66 | 1023.8 |
| 20260906061504 | 67 | 51 | 9.0 | 13.0 | 0.00 | 0.00 | 0.00 | 64 | 1023.8 |
| 20260906060005 | 66 | 51 | 10.0 | 13.0 | 0.00 | 0.00 | 0.00 | 68 | 1023.8 |
| 20260906054519 | 68 | 60 | 11.0 | 14.0 | 0.00 | 0.00 | 0.00 | 66 | 1023.7 |
| 20260906053017 | 69 | 43 | 12.0 | 15.0 | 0.00 | 0.00 | 0.00 | 64 | 1023.7 |
| 20260906051511 | 68 | 39 | 12.0 | 14.0 | 0.00 | 0.00 | 0.00 | 63 | 1023.6 |
| 20260906050009 | 68 | 58 | 8.0 | 11.0 | 0.00 | 0.00 | 0.00 | 65 | 1023.6 |
| 20260906044504 | 67 | 94 | 10.0 | 14.0 | 0.00 | 0.00 | 0.00 | 65 | 1023.6 |
| 20260906043003 | 66 | 198 | 7.0 | 8.0 | 0.00 | 0.00 | 0.00 | 70 | 1023.5 |
| 20260906041525 | 68 | 210 | 6.0 | 10.0 | 0.00 | 0.00 | 0.00 | 65 | 1023.5 |
| 20260906040020 | 67 | 221 | 7.0 | 12.0 | 0.00 | 0.00 | 0.00 | 65 | 1023.5 |
| 20260906034515 | 65 | 249 | 9.0 | 11.0 | 0.00 | 0.00 | 0.00 | 71 | 1023.5 |
| 20260906033013 | 65 | 204 | 4.0 | 6.0 | 0.00 | 0.00 | 0.00 | 72 | 1023.2 |
| 20260906031508 | 66 | 271 | 4.0 | 6.0 | 0.00 | 0.00 | 0.00 | 67 | 1023.0 |
| 20260906030006 | 66 | 271 | 5.0 | 7.0 | 0.00 | 0.00 | 0.00 | 69 | 1023.0 |
| 20260906024527 | 66 | 264 | 6.0 | 9.0 | 0.00 | 0.00 | 0.00 | 71 | 1023.1 |
| 20260906023022 | 65 | 274 | 6.0 | 8.0 | 0.00 | 0.00 | 0.00 | 76 | 1022.9 |
| 20260906021519 | 66 | 246 | 5.0 | 7.0 | 0.00 | 0.00 | 0.00 | 77 | 1022.7 |
| 20260906020014 | 67 | 249 | 3.0 | 7.0 | 0.00 | 0.00 | 0.00 | 77 | 1022.6 |
| 20260906014518 | 69 | 246 | 5.0 | 8.0 | 0.00 | 0.00 | 0.00 | 74 | 1022.5 |
| 20260906013008 | 70 | 263 | 6.0 | 8.0 | 0.00 | 0.00 | 0.00 | 74 | 1022.6 |
| 20260906011527 | 72 | 208 | 4.0 | 4.0 | 0.00 | 0.00 | 0.00 | 69 | 1022.6 |
| 20260906010027 | 73 | 206 | 5.0 | 9.0 | 0.00 | 0.00 | 0.00 | 66 | 1022.5 |
| 20260906004519 | 73 | 225 | 6.0 | 9.0 | 0.00 | 0.00 | 0.00 | 65 | 1022.7 |
| 20260906003017 | 73 | 225 | 6.0 | 9.0 | 0.00 | 0.00 | 0.00 | 67 | 1022.9 |
| 20260906001513 | 75 | 160 | 4.0 | 8.0 | 0.00 | 0.00 | 0.00 | 59 | 1023.1 |
| 20260906000011 | 74 | 236 | 3.0 | 7.0 | 0.00 | 0.01 | 0.00 | 59 | 1022.8 |
| 20260905234531 | 73 | 320 | 8.0 | 16.0 | 0.00 | 0.04 | 0.00 | 61 | 1023.0 |
| 20260905233036 | 72 | 107 | 14.0 | 20.0 | 0.00 | 0.04 | 0.00 | 64 | 1023.2 |
| 20260905231533 | 74 | 353 | 14.0 | 18.0 | 0.00 | 0.04 | 0.00 | 59 | 1023.3 |
| 20260905230020 | 78 | 150 | 0.0 | 11.0 | 0.00 | 0.04 | 0.00 | 52 | 1023.5 |
| 20260905224518 | 78 | 52 | 0.0 | 2.0 | 0.00 | 0.04 | 0.00 | 51 | 1022.9 |
| 20260905223014 | 78 | 124 | 6.0 | 11.0 | 0.00 | 0.04 | 0.00 | 49 | 1022.8 |
| 20260905221536 | 78 | 46 | 8.0 | 13.0 | 0.00 | 0.04 | 0.00 | 50 | 1023.0 |